Powrót do katalogu

SL-8 R/B

AktywnyLEO
NORAD 9598·ROCKET BODY·🇷🇺 Russia

Wystrzelony Dec 7, 1976 z Plesetsk Cosmodrome

Loading…

Następne Przeloty (najbliższe 24 godziny)

TLE

ŚwieżeSource: Space-Track

Epoka: Sep 14, 2026, 10:13 UTC

1 09598U 76118J   26257.42586646  .00000078  00000-0  82538-3 0  9991
2 09598  74.0121 251.0010 0136966 192.3553 321.7980 12.24177837224040

Śledź SL-8 R/B w czasie rzeczywistym z AllMySat

Download on the App Store